Tracking 29892 objects as of 21-Nov-2024
HD Live streaming from Space Station
objects crossing your sky now

COSMOS 1932

Track COSMOS 1932 now!
10-day predictions
COSMOS 1932 is classified as:


NORAD ID: 18957
Int'l Code: 1988-019A
Perigee: 949.0 km
Apogee: 994.7 km
Inclination: 65.0 °
Period: 104.4 minutes
Semi major axis: 7342 km
RCS: 2.9305 m2 (large)
Launch date: March 14, 1988
Source: Commonwealth of Independent States (former USSR) (CIS)
Launch site: TYURATAM MISSILE AND SPACE COMPLEX (TTMTR)
Your satellite tracking list
Your tracking list is empty




NASA's NSSDC Master Catalog

Two Line Element Set (TLE):
1 18957U 88019A   24325.55457252 -.00000058  00000-0  28302-4 0  9990
2 18957  65.0423 166.2690 0031126  55.7198 304.6801 13.79776014850000
Source of the keplerian elements: AFSPC